FW1075 Weather Reports


time (UTC)temp
C
wind
direction
speed
KPH
gust
KPH
rain 1hr
cm
rain 24hr
cm
rain mn
cm
humidity
%
barometer
mb
20260510052121 11 58 0.0 3.2 0.00 0.56 0.00 99 1009.6
20260510051121 11 105 0.0 3.2 0.00 0.56 0.00 99 1009.8
20260510050121 11 180 0.0 0.0 0.00 0.56 0.00 99 1009.8
20260510045121 11 113 0.0 3.2 0.00 0.56 0.00 99 1009.7
20260510044121 11 113 0.0 3.2 0.00 0.56 0.00 99 1009.7
20260510043121 11 86 1.6 4.8 0.00 0.56 0.00 99 1009.7
20260510042122 11 110 1.6 4.8 0.00 0.56 0.00 99 1009.6
20260510041122 11 100 0.0 3.2 0.00 0.56 0.00 99 1009.5
20260510040127 11 206 1.6 4.8 0.00 0.56 0.00 99 1009.5
20260510035127 11 113 1.6 4.8 0.00 0.56 0.56 99 1009.2
20260510034121 11 102 3.2 4.8 0.00 0.56 0.56 99 1009.2
20260510033122 11 123 3.2 3.2 0.00 0.56 0.56 99 1009.2
20260510032121 11 113 0.0 1.6 0.00 0.56 0.56 99 1009.2
20260510031121 11 114 1.6 4.8 0.00 0.56 0.56 99 1009.2
20260510030121 11 99 3.2 4.8 0.00 0.56 0.56 99 1009.2
20260510025122 11 96 1.6 4.8 0.00 0.56 0.56 99 1009.2
20260510024122 11 127 1.6 3.2 0.00 0.56 0.56 99 1009.4
20260510023122 11 172 1.6 4.8 0.00 0.56 0.56 99 1009.2
20260510022122 11 103 4.8 6.4 0.00 0.56 0.56 99 1009.4
20260510021128 11 142 1.6 4.8 0.00 0.56 0.56 99 1009.2
20260510020122 11 207 1.6 3.2 0.00 0.56 0.56 99 1009.2
20260510015122 11 128 3.2 4.8 0.00 0.56 0.56 99 1009.2
20260510014122 11 139 1.6 6.4 0.00 0.56 0.56 99 1009.2
20260510013143 11 129 3.2 6.4 0.00 0.56 0.56 99 1009.1
20260510012124 11 130 1.6 4.8 0.00 0.56 0.56 99 1009.0
20260510011145 11 112 1.6 4.8 0.00 0.56 0.56 99 1009.0
20260510010122 11 113 0.0 0.0 0.00 0.56 0.56 99 1009.0
20260510005123 11 45 0.0 0.0 0.03 0.56 0.56 99 1008.9
20260510004121 11 113 0.0 0.0 0.03 0.56 0.56 99 1008.9
20260510003142 12 180 0.0 0.0 0.03 0.56 0.56 99 1008.8
20260510002121 12 248 0.0 0.0 0.03 0.56 0.56 99 1008.6
20260510001124 12 180 0.0 0.0 0.03 0.56 0.56 99 1008.4
20260510000124 12 117 1.6 4.8 0.03 0.56 0.56 99 1008.4
20260509235121 12 97 3.2 8.0 0.03 0.53 0.53 99 1008.2
20260509234123 13 114 0.0 3.2 0.10 0.53 0.53 99 1008.5
20260509233144 13 71 1.6 4.8 0.10 0.53 0.53 99 1008.2
20260509232144 13 95 1.6 4.8 0.13 0.53 0.53 99 1008.4
20260509231121 13 121 1.6 4.8 0.25 0.53 0.53 99 1008.8
20260509230121 13 8 3.2 6.4 0.25 0.53 0.53 99 1009.0
20260509225125 13 164 3.2 6.4 0.23 0.51 0.51 99 1009.0
20260509224144 13 208 3.2 6.4 0.15 0.43 0.43 99 1009.2
20260509223121 13 134 3.2 6.4 0.15 0.43 0.43 99 1009.0
20260509222143 13 97 3.2 8.0 0.13 0.41 0.41 99 1009.8
20260509221146 14 230 1.6 3.2 0.00 0.28 0.28 99 1008.8
20260509220121 13 104 3.2 6.4 0.00 0.28 0.28 99 1008.8
20260509215143 13 193 1.6 3.2 0.00 0.28 0.28 99 1009.4
20260509214128 13 186 1.6 4.8 0.00 0.28 0.28 99 1009.2
20260509213122 13 156 1.6 4.8 0.00 0.28 0.28 99 1009.2
20260509212122 13 113 3.2 4.8 0.00 0.28 0.28 99 1009.4
20260509211121 13 143 1.6 6.4 0.03 0.28 0.28 99 1009.2
20260509210121 13 179 3.2 4.8 0.03 0.28 0.28 99 1009.2
20260509205123 13 245 4.8 8.0 0.03 0.28 0.28 99 1009.4
20260509204142 13 224 3.2 8.0 0.03 0.28 0.28 99 1009.4
20260509203142 13 247 4.8 9.7 0.03 0.28 0.28 99 1009.2
20260509202123 13 245 6.4 12.9 0.03 0.28 0.28 99 1009.4
20260509201142 13 232 4.8 9.7 0.00 0.25 0.25 99 1009.2
20260509200146 14 201 4.8 8.0 0.00 0.25 0.25 99 1009.2
20260509195122 14 254 6.4 11.3 0.05 0.25 0.25 99 1009.2
20260509194143 14 194 4.8 8.0 0.05 0.25 0.25 99 1009.5
20260509193121 13 252 4.8 11.3 0.10 0.25 0.25 99 1009.5
20260509192121 13 236 3.2 6.4 0.10 0.25 0.25 99 1009.4
20260509191142 13 126 3.2 6.4 0.13 0.25 0.25 99 1009.6
20260509190121 13 228 3.2 8.0 0.13 0.25 0.25 99 1009.6
20260509185123 13 211 4.8 8.0 0.10 0.20 0.20 99 1010.0
20260509184143 14 154 3.2 8.0 0.13 0.20 0.20 99 1009.9
20260509183122 14 235 3.2 6.4 0.08 0.15 0.15 99 1009.7
20260509182124 14 178 4.8 12.9 0.10 0.15 0.15 99 1009.2
20260509181143 14 74 1.6 3.2 0.10 0.13 0.13 99 1009.5
20260509180122 14 174 3.2 6.4 0.13 0.13 0.13 99 1009.5
20260509175122 14 205 3.2 6.4 0.10 0.10 0.10 99 1009.5
20260509174144 14 235 3.2 4.8 0.08 0.08 0.08 99 1009.2
20260509173125 14 163 3.2 8.0 0.08 0.08 0.08 99 1009.6
20260509172145 14 222 3.2 8.0 0.05 0.05 0.05 99 1009.2
20260509171121 15 165 3.2 20.9 0.03 0.03 0.03 97 1009.8
20260509170142 15 238 6.4 11.3 0.00 0.00 0.00 95 1009.6
20260509165121 15 221 4.8 9.7 0.00 0.00 0.00 93 1009.6
20260509164122 16 207 4.8 9.7 0.00 0.00 0.00 87 1009.6
20260509163121 17 179 4.8 8.0 0.00 0.00 0.00 83 1009.8
20260509162121 16 169 4.8 8.0 0.00 0.00 0.00 85 1010.0
20260509161125 17 217 3.2 4.8 0.00 0.00 0.00 82 1010.2
20260509160125 17 199 3.2 6.4 0.00 0.00 0.00 81 1010.2
20260509155124 17 165 4.8 8.0 0.00 0.00 0.00 80 1010.4
20260509154121 18 105 3.2 6.4 0.00 0.00 0.00 76 1010.2
20260509153121 17 146 3.2 6.4 0.00 0.00 0.00 77 1010.5
20260509152121 18 143 4.8 6.4 0.00 0.00 0.00 75 1010.4
20260509151121 18 207 4.8 6.4 0.00 0.00 0.00 74 1010.4
20260509150122 18 215 4.8 9.7 0.00 0.00 0.00 74 1010.4
20260509145126 18 240 4.8 9.7 0.00 0.00 0.00 75 1010.4
20260509144125 18 272 4.8 8.0 0.00 0.00 0.00 74 1010.4
20260509143125 17 233 4.8 9.7 0.00 0.00 0.00 75 1010.5
20260509142122 17 239 3.2 6.4 0.00 0.00 0.00 77 1010.6
20260509141123 16 191 3.2 6.4 0.00 0.00 0.00 78 1010.5
20260509140122 16 144 3.2 6.4 0.00 0.00 0.00 79 1010.6
20260509135131 15 143 3.2 8.0 0.00 0.00 0.00 80 1010.6
20260509135122 15 148 3.2 8.0 0.00 0.00 0.00 80 1010.6
20260509134122 15 130 3.2 6.4 0.00 0.00 0.00 80 1010.6
20260509133125 16 132 4.8 11.3 0.00 0.00 0.00 78 1010.5
20260509132121 15 111 1.6 4.8 0.00 0.00 0.00 81 1010.7
20260509131121 15 144 3.2 6.4 0.00 0.00 0.00 84 1011.0
20260509130122 14 199 3.2 6.4 0.00 0.00 0.00 87 1011.0
20260509125121 14 210 1.6 6.4 0.00 0.00 0.00 87 1011.0
20260509124121 14 213 3.2 6.4 0.00 0.00 0.00 88 1011.1
20260509123122 14 176 3.2 4.8 0.00 0.00 0.00 89 1010.9
20260509122121 13 134 1.6 4.8 0.00 0.00 0.00 88 1011.1
20260509121121 13 226 1.6 4.8 0.00 0.00 0.00 88 1011.1
20260509120121 13 214 1.6 6.4 0.00 0.00 0.00 88 1011.2
20260509115121 13 207 3.2 6.4 0.00 0.00 0.00 88 1011.2
20260509114121 13 219 1.6 3.2 0.00 0.00 0.00 89 1011.1
20260509113121 12 177 1.6 4.8 0.00 0.00 0.00 90 1011.1
20260509112121 12 292 0.0 4.8 0.00 0.00 0.00 91 1011.1
20260509111142 12 228 1.6 4.8 0.00 0.00 0.00 93 1010.8
20260509110122 11 203 1.6 3.2 0.00 0.00 0.00 94 1010.9
20260509105121 11 142 1.6 3.2 0.00 0.00 0.00 95 1010.9
20260509104121 11 232 0.0 1.6 0.00 0.00 0.00 96 1010.8
20260509103122 11 221 0.0 3.2 0.00 0.00 0.00 97 1010.6
20260509102122 11 196 0.0 3.2 0.00 0.00 0.00 98 1010.6
20260509101122 11 141 0.0 3.2 0.00 0.00 0.00 99 1010.6
20260509100122 11 143 0.0 1.6 0.00 0.00 0.00 99 1010.6
20260509095122 11 113 0.0 1.6 0.00 0.00 0.00 99 1010.6
20260509094122 11 113 0.0 3.2 0.00 0.00 0.00 99 1010.4
20260509093122 11 207 1.6 4.8 0.00 0.00 0.00 99 1010.4
20260509092146 11 129 1.6 4.8 0.00 0.00 0.00 99 1010.7
20260509091123 11 110 1.6 4.8 0.00 0.00 0.00 99 1010.6
20260509090121 11 103 3.2 4.8 0.00 0.00 0.00 99 1010.7
20260509085121 11 169 0.0 3.2 0.00 0.00 0.00 98 1010.7
20260509084121 11 133 1.6 3.2 0.00 0.00 0.00 99 1010.6
20260509083122 11 135 1.6 4.8 0.00 0.00 0.00 99 1010.7
20260509082121 11 117 1.6 4.8 0.00 0.00 0.00 99 1010.7
20260509081142 11 80 1.6 4.8 0.00 0.00 0.00 98 1010.9
20260509080144 11 103 1.6 3.2 0.00 0.00 0.00 98 1011.0
20260509075144 11 107 1.6 3.2 0.00 0.00 0.00 97 1011.0
20260509074123 11 206 1.6 3.2 0.00 0.00 0.00 97 1011.0
20260509073121 11 175 1.6 4.8 0.00 0.00 0.00 97 1010.9
20260509072123 11 224 1.6 3.2 0.00 0.00 0.00 98 1010.6
20260509071122 11 115 1.6 3.2 0.00 0.00 0.00 98 1010.5
20260509070123 11 108 1.6 4.8 0.00 0.00 0.00 98 1010.6
20260509065143 11 92 1.6 4.8 0.00 0.00 0.00 98 1010.6
20260509064145 11 90 1.6 3.2 0.00 0.00 0.00 98 1010.7
20260509063124 11 89 1.6 4.8 0.00 0.00 0.00 98 1011.0
20260509062122 10 122 1.6 3.2 0.00 0.00 0.00 99 1011.2
20260509061122 10 91 1.6 3.2 0.00 0.00 0.00 99 1011.5
20260509060143 10 88 1.6 4.8 0.00 0.00 0.00 98 1011.5
20260509055122 10 132 1.6 4.8 0.00 0.00 0.00 98 1011.5
20260509054122 10 217 0.0 3.2 0.00 0.00 0.00 97 1011.5
20260509053122 10 218 0.0 3.2 0.00 0.00 0.00 97 1011.5